Terug naar catalogus

FREGAT DEB

LostUNKNOWN
NORAD 45928·DEBRIS·🇷🇺 Russia

Gelanceerd Jul 18, 2011 vanaf Baikonur Cosmodrome

Loading…

Volgende Passages (komende 24 uur)

TLE

VerouderdSource: Space-Track

Epoch: Aug 2, 2020, 09:34 UTC

1 45928U 11037ES  20215.39871576  .00150108  00000-0  65552-1 0  9995
2 45928  51.2231 205.6145 1129879 180.0606 180.0282 12.57311028  2996

Volg FREGAT DEB in realtime met AllMySat

Download on the App Store